Preview of NWS' New Version of Forecast
This preview is not operational and should not be used for support decisions.

Regional Weather Roundup (RWR)

Issued by National Weather Service (NWS)

                            
000
ASUS44 KJAN 172210
RWRMS 

MISSISSIPPI HOURLY WEATHER ROUNDUP
NATIONAL WEATHER SERVICE JACKSON MS
500 PM CDT WED APR 17 2019

NOTE: "FAIR: INDICATES FEW OR NO CLOUDS BELOW 12,000 FEET WITH NO
SIGNIFICANT WEATHER AND/OR OBSTRUCTIONS TO VISIBILITY.

MSZ001>002-007>008-010>013-018>021-025>028-034>036-172300-
NORTHWEST MISSISSIPPI
  
CITY           SKY/WX    TMP DP  RH WIND       PRES   REMARKS
BATESVILLE       N/A     72  63  73 S6        29.91F                  
CLARKSDALE     SUNNY     73  66  78 S15       29.91S                  
CLEVELAND      FAIR      73  64  75 S6        29.90F                  
GREENWOOD      FAIR      76  62  62 S12       29.92S                  
GREENVILLE     FAIR      74  62  66 SE14      29.89F                  
OLIVE BRANCH   CLOUDY    70  63  78 S14       29.90F                  
OXFORD         FAIR      70  61  73 SE6       29.93F                  
TUNICA           N/A     72  63  73 S14       29.91S                  
WINONA         FAIR      74  62  66 S8        29.94S                  
$$

MSZ003>006-009-014>017-022>024-029>033-037>039-172300-
NORTHEAST MISSISSIPPI
  
CITY           SKY/WX    TMP DP  RH WIND       PRES   REMARKS
ABERDEEN       FAIR      73  66  78 SE8G16    29.98R                  
COLUMBUS AFB   FAIR      74  59  57 S12       29.96F                  
CORINTH        FAIR      70  59  68 SE8       29.93S                  
GOLDN TRIANGLE FAIR      75  61  61 SE12      29.97F                  
STARKVILLE     FAIR      73  59  60 SE6       29.97S                  
TUPELO         PTSUNNY   74  57  55 S12       29.94F                  
$$

MSZ040-058-172300-
CENTRAL MISSISSIPPI
  
CITY           SKY/WX    TMP DP  RH WIND       PRES   REMARKS
JACKSON INTL   PTSUNNY   77  61  57 S12       29.95F                  
JACKSON HAWKNS FAIR      76  63  64 S10       29.96F                  
MADISON        FAIR      73  63  68 S5        29.95F                  
MERIDIAN KEY   FAIR      78  59  51 S12       29.98S                  
MERIDIAN NAS   CLOUDY    77  61  57 SE6       29.99S                  
RAYMOND        FAIR      77  68  73 SE9       29.95F                  
VICKSBURG VKS  CLEAR     77  64  65 SE6G14    29.92F                  
$$

MSZ059>079-172300-
SOUTH MISSISSIPPI
  
CITY           SKY/WX    TMP DP  RH WIND       PRES   REMARKS
HATTIESBURG    FAIR      79  59  50 S10       29.98F                  
LAUREL         PTCLDY    78  63  59 SE9       29.97S                  
MCCOMB         FAIR      76  61  59 S9        29.96F                  
NATCHEZ        PTSUNNY   78  64  61 SE14      29.92F                  
PINE BELT      FAIR      79  61  53 SE9G16    29.99S                  
$$

MSZ080>082-172300-
COASTAL MISSISSIPPI
  
CITY           SKY/WX    TMP DP  RH WIND       PRES   REMARKS
BAY ST LOUIS   PTSUNNY   73  64  73 SE13      30.00F                  
BILOXI         FAIR      74  63  67 SE10      30.00F                  
PASCAGOULA     FAIR      77  60  55 S10       30.01F                  
GULFPORT       FAIR      75  63  66 SE14      29.99F                  
$$

LAZ007>009-015>016-023>026-172300-
NORTHEAST LOUISIANA
  
CITY           SKY/WX    TMP DP  RH WIND       PRES   REMARKS
BASTROP        FAIR      75  64  67 SE6       29.86F                  
TALLULAH/VBURG FAIR      76  64  66 SE14      29.90F                  
VIDALIA        FAIR      78  65  64 S10       29.91F                  
$$